Regional Weather Roundup
Issued by NWS

Home | Current Version | Previous Version | Text Only | Print | Product List | Glossary Off
Versions: 1 2 3 4 5 6 7 8 9 10 11 12 13 14 15 16 17 18 19 20 21 22 23 24 25 26 27 28 29 30 31 32 33 34 35 36 37 38 39 40 41 42 43 44 45 46 47 48 49 50

000
ASUS43 KIND 291359
RWRIN

WEATHER ROUNDUP FOR INDIANA
NATIONAL WEATHER SERVICE INDIANAPOLIS IN
1000 AM EDT MON AUG 29 2016

NOTE: "FAIR" INDICATES FEW OR NO CLOUDS BELOW 12,000 FEET WITH NO
SIGNIFICANT WEATHER AND/OR OBSTRUCTIONS TO VISIBILITY.

* - STATION DOES NOT REPORT WEATHER SUCH AS PRECIPITATION OR FOG.

+ - STATION NOT QUALITY CONTROLLED BY THE NATIONAL WEATHER SERVICE.
    USE DATA WITH CAUTION...ESPECIALLY DEWPOINT AND RELATIVE
    HUMIDITY OBSERVATIONS.

INZ001>003-010>013-019-020-291500-
NORTHWEST INDIANA

CITY           SKY/WX    TMP DP  RH WIND       PRES   REMARKS
GARY /AIRPORT/ MOSUNNY   79  73  83 E7        30.25R
KNOX *+        SUNNY     73  54  49 E5        30.25S
MONTICELLO +   SUNNY     76  67  75 SE3       30.24S

$$

LMZ046-743>745-291500-
SOUTHERN LAKE MICHIGAN

STATION/POSITION TIME  TEMP    WIND        PRES    WAVE
                       AIR SEA DIR/SP/G            HT
                 (UTC) (F)     (DEG/KT/KT) (MB)    (FT)
BURNS HARBOR     1306   73      70/  6/ 10 1024.4R
MICHIGAN CITY    1300   71      60/  4/  5   N/A
5NW MICH CITY    1300   73 75   80/  8/ 10   N/A     1

$$

INZ004-005-014>016-021>024-291500-
NORTH CENTRAL INDIANA

CITY           SKY/WX    TMP DP  RH WIND       PRES   REMARKS
ELKHART        SUNNY    N/A N/A N/A SE6       30.26R
GOSHEN         SUNNY     75  69  81 E9        30.27R
SOUTH BEND     SUNNY     75  69  81 E7        30.27R

$$

INZ006>009-017-018-025>027-291500-
NORTHEAST INDIANA

CITY           SKY/WX    TMP DP  RH WIND       PRES   REMARKS
ANGOLA *+      MOSUNNY   73  72  94 SE8       30.27S
FORT WAYNE     FOG       72  69  90 E8        30.27S VSB 1

$$

INZ028-029-035-036-043>045-051>053-291500-
WEST CENTRAL INDIANA

CITY           SKY/WX    TMP DP  RH WIND       PRES   REMARKS
CRAWFORDSVL +  SUNNY     74  74  98 SE7       30.25S
LAFAYETTE      MOSUNNY   74  71  91 SE6       30.24S
TERRE HAUTE    SUNNY     78  70  76 E9        30.24R

$$

INZ030>032-037>040-046>048-054>057-064-065-291500-
CENTRAL INDIANA

CITY           SKY/WX    TMP DP  RH WIND       PRES   REMARKS
ANDERSON       SUNNY     75  70  83 E6        30.25R
COLUMBUS       SUNNY     75  73  94 CALM      30.24S
INDIANAPOLIS   MOSUNNY   77  68  73 E3        30.24S
-EAGLE CREEK   SUNNY     77  68  73 E3        30.24S
KOKOMO *+      PTSUNNY   73  70  88 E6        30.26R
MT COMFORT *+  SUNNY     75  70  83 SE5       30.25S
SHELBYVILLE    SUNNY     78  69  73 E5        30.24S

$$

INZ033-034-041-042-049-050-058-059-291500-
EAST CENTRAL INDIANA

CITY           SKY/WX    TMP DP  RH WIND       PRES   REMARKS
MUNCIE         MOSUNNY   77  70  79 E6        30.26R

$$

INZ060-061-067>069-081>083-085>088-291500-
SOUTHWEST INDIANA

CITY           SKY/WX    TMP DP  RH WIND       PRES   REMARKS
EVANSVILLE     SUNNY     79  70  74 E5        30.21R
HUNTINGBURG *+ SUNNY     79  70  73 E6        30.22R

$$

INZ062-063-066-070>080-084-089>092-291500-
SOUTH CENTRAL AND SOUTHEAST INDIANA

CITY           SKY/WX    TMP DP  RH WIND       PRES   REMARKS
BLOOMINGTON    SUNNY     78  67  68 E7        30.24R
MADISON *+     SUNNY     77  68  73 NE5       30.25S

$$





USA.gov is the U.S. government's official web portal to all federal, state and local government web resources and services.